{"data":{"norad_id":67010,"intl_designator":"2025-293H","name":"STARLINK-36189","alt_names":[],"object_type":"PAYLOAD","status":"ACTIVE","operator":null,"country":"US","launch_date":"2025-12-10","launch_site_code":"AFWTR","launch_vehicle":null,"mission":null,"orbit_class":"UNKNOWN","rcs_meters":null,"size_class":null,"mass_kg":null,"dimensions":null,"purposes":["comms"],"wikipedia_slug":null,"has_3d_model":false,"image_url":null,"decayed_at":null,"tle_current":{"epoch":"2026-05-25T01:44:25.370304Z","epoch_age_seconds":64706,"freshness":"FRESH","line1":"1 67010U 25293H   26145.07251586  .00003197  00000+0  27556-3 0  9994","line2":"2 67010  70.0008 261.6876 0003431 268.6707  91.4059 14.98338014 26337","mean_motion":14.98338014,"eccentricity":0.0003431,"inclination_deg":70.0008,"raan_deg":261.6876,"arg_perigee_deg":268.6707,"mean_anomaly_deg":91.4059,"bstar":0.00027556,"rev_number":2633,"period_min":96.106485088484,"perigee_km":569.64650574296,"apogee_km":574.41571109895,"semimajor_km":6950.168108421,"source":"CELESTRAK","updated_at":"2026-05-25T13:38:21.430709Z"}}}